Volver al catálogo

SL-14 R/B

ActivoPO
NORAD 16144·ROCKET BODY·🇷🇺 Russia

Lanzado Oct 9, 1985 desde Plesetsk Cosmodrome

Loading…

Próximos Pases (próximas 24 horas)

TLE

ActualizadoSource: Space-Track

Época: Sep 14, 2026, 13:25 UTC

1 16144U 85094G   26257.55960547  .00000016  00000-0  37405-4 0  9995
2 16144  82.6146 357.5066 0035173 255.5315 115.4536 12.54894620874962

Sigue SL-14 R/B en tiempo real con AllMySat

Download on the App Store